SCP
2 2 3 3 3 4 4 4 4 4 3 4 4 4 3 3 3 3 3 3 3 3 3 2 2 2 2 2 2 2 1 1 1 1 1 1 0 0 0 1 1 1 1
3 3 3 3 3 3 3 4 3 3 3 3 4 3 3 3 3 3 3 3 3 3 3 2 2 2 2 2 2 2 2 1 1 1 1 1 1 1 1 1 1 1 1
4 4 3 3 3 3 3 3 3 3 3 3 3 3 3 3 3 3 2 2 2 2 2 1 2 2 2 2 2 2 2 2 1 1 1 1 1 1 1 1 1 1 1
5 5 4 3 3 3 3 3 3 3 3 4 4 3 3 3 3 2 2 2 2 2 1 1 1 2 2 2 2 2 2 2 2 2 1 1 1 1 1 1 1 1 1
4 4 4 4 4 4 4 4 4 4 4 4 4 4 4 3 2 2 2 2 2 2 1 1 1 1 2 2 2 2 2 2 2 2 2 1 1 1 1 1 1 1 1
3 3 3 3 4 4 5 5 6 5 5 5 5 5 4 3 2 2 2 2 2 2 2 1 1 1 1 1 1 2 2 2 2 2 2 2 1 1 1 1 1 1 1
2 2 2 2 3 5 6 7 7 8 7 7 7 6 5 3 2 1 2 2 2 2 2 2 2 1 1 1 1 1 1 2 2 2 2 2 2 1 1 1 1 1 1
2 2 2 3 4 6 8 9 10 10 10 8 7 5 4 2 1 1 1 2 2 2 2 3 2 1 1 1 1 1 1 1 1 1 2 2 1 1 1 1 1 1 1
3 3 3 4 6 8 9 10 11 11 11 9 6 4 3 2 1 1 1 1 1 1 2 2 2 1 1 1 1 1 1 1 1 1 1 1 1 1 1 1 1 1 1
4 3 4 4 6 8 9 9 9 9 9 7 4 2 2 1 1 1 1 1 1 1 1 1 1 1 0 0 0 1 1 1 1 1 1 1 0 0 1 1 1 1 1
4 4 4 4 6 7 7 6 6 6 6 5 3 2 1 1 1 1 1 1 1 1 1 1 1 1 0 0 0 1 1 1 1 1 1 1 1 0 0 1 1 1 1
4 5 5 5 6 5 4 4 4 5 4 4 3 2 1 1 1 1 0 0 1 1 1 2 1 1 0 0 0 0 0 1 1 1 1 1 1 1 0 0 1 1 1
6 6 6 6 6 4 3 3 3 3 3 3 3 2 1 1 1 1 1 0 0 1 1 1 1 1 0 0 0 0 0 0 1 1 0 1 1 1 0 0 0 0 0
6 6 5 5 5 3 2 2 2 2 2 2 2 2 1 1 1 1 1 1 1 1 1 1 1 0 0 0 0 0 0 0 0 0 0 0 1 1 0 0 0 0 0
5 4 4 4 3 2 2 1 1 1 1 1 1 1 1 1 1 1 2 2 2 1 1 1 1 1 1 1 1 1 0 0 0 0 0 0 0 0 0 0 1 1 1
3 3 2 2 2 2 1 1 1 1 0 0 1 1 1 1 0 0 1 2 1 1 2 2 2 2 1 2 1 1 1 1 1 1 1 0 0 0 0 0 1 1 1
2 2 1 1 1 1 2 2 1 1 0 0 0 0 0 0 0 0 0 1 1 1 2 2 3 3 2 2 2 1 1 1 1 1 1 1 1 1 1 1 1 1 1
0 0 0 1 1 1 2 2 2 1 1 0 0 0 0 0 0 0 0 0 1 2 2 3 3 3 3 2 2 1 1 1 1 1 1 1 1 1 1 1 1 1 1
0 0 0 1 1 1 2 2 2 2 1 0 0 0 0 0 0 0 0 1 2 2 3 3 3 4 4 3 2 2 1 1 2 2 1 1 1 1 1 1 1 1 1
0 0 0 0 1 1 1 2 2 1 1 0 0 0 0 0 0 0 0 0 1 2 3 3 3 4 4 3 2 2 1 1 1 1 1 1 1 1 1 1 1 1 1
0 0 0 0 0 1 1 1 1 1 0 0 0 0 0 0 0 0 0 0 1 2 3 3 4 4 4 3 2 2 1 1 1 1 1 1 1 1 1 1 1 1 1
0 0 0 0 0 0 0 0 0 0 0 0 0 0 0 0 0 0 0 0 1 2 3 3 3 4 4 3 2 2 1 1 0 1 1 1 0 0 0 0 0 1 1
0 0 0 0 0 0 0 0 0 0 0 0 0 0 0 0 0 0 0 0 1 2 3 3 3 3 3 3 2 2 1 1 0 0 0 0 0 0 0 0 0 0 0
0 0 0 0 0 0 0 0 0 0 0 0 0 0 0 0 0 0 0 1 1 2 2 3 3 3 2 2 2 2 1 1 0 0 0 0 0 0 0 0 0 0 0
0 0 0 0 0 0 0 0 0 0 0 0 0 0 0 0 0 1 1 2 2 2 2 2 3 2 2 2 2 1 1 0 0 0 0 0 0 0 0 0 0 0 0
0 0 0 0 0 0 0 0 0 0 0 0 0 0 0 0 0 1 2 3 3 2 2 2 3 2 2 1 1 1 0 0 0 0 0 0 0 0 0 0 0 0 0
Wind_Speed
5 4 4 3 3 3 2 3 2 2 2 2 2 2 2 1 1 1 1 1 1 1 1 1 2 2 2 2 1 2 2 2 3 3 2 2 3 3 3 3 3 3 3
3 3 3 3 3 3 3 2 2 2 3 3 3 2 2 2 1 2 2 2 2 2 2 1 2 1 2 1 1 2 2 3 3 3 3 2 2 3 3 3 2 2 2
4 4 2 3 3 3 3 2 2 2 3 3 3 3 3 3 2 3 3 3 3 2 2 2 2 1 2 2 2 2 2 2 3 3 3 2 2 2 2 3 3 2 3
4 4 4 4 4 3 3 3 3 3 3 3 3 3 3 3 3 3 3 3 3 3 2 2 2 2 3 3 2 3 2 2 2 3 3 2 2 2 2 2 3 2 3
4 4 4 3 3 2 3 3 3 3 3 3 3 3 3 2 3 3 3 3 3 3 2 2 3 3 4 3 3 3 3 2 2 2 3 3 3 2 2 2 3 3 3
4 4 3 2 2 3 3 3 3 3 2 2 3 3 3 3 3 4 3 3 2 3 3 3 3 4 4 4 5 5 5 4 4 3 3 4 4 3 3 2 2 3 3
3 3 3 3 4 4 4 3 3 3 3 3 3 3 3 4 4 3 3 2 2 2 3 3 3 3 3 3 4 4 5 6 6 5 5 5 4 3 3 4 3 4 4
3 2 2 2 3 3 3 3 3 3 3 3 3 3 3 4 4 3 3 2 2 3 3 3 3 4 3 3 3 4 4 4 5 5 5 6 5 4 5 5 4 4 4
2 2 2 3 2 3 3 3 3 2 3 3 3 3 3 4 4 3 2 2 2 3 3 3 3 4 5 4 3 4 4 4 4 5 5 5 6 5 4 2 3 3 4
3 3 3 3 3 3 3 3 2 2 3 3 3 3 3 3 4 3 3 2 2 3 3 3 5 5 5 4 3 4 5 5 4 4 4 5 4 4 5 4 4 4 3
2 2 2 3 3 3 2 2 2 2 2 2 3 3 3 3 3 3 3 2 3 3 3 3 4 6 6 6 5 5 7 5 4 3 3 3 3 3 3 4 4 4 4
2 2 3 2 2 2 1 2 1 2 2 2 2 3 2 2 3 3 4 4 4 4 4 4 4 6 6 6 5 5 6 4 2 2 3 3 3 3 3 4 4 5 5
1 2 3 2 2 2 2 2 2 2 2 2 2 3 3 2 3 4 5 5 5 4 4 5 5 5 5 4 5 5 4 2 2 3 3 3 3 3 3 3 3 3 3
2 2 2 2 1 1 1 2 2 3 3 3 3 3 3 3 3 3 3 3 4 4 3 4 4 3 3 3 2 2 2 2 3 3 3 3 2 2 2 2 2 2 2
1 2 2 2 2 1 2 2 3 3 4 4 4 4 4 4 5 5 3 3 3 3 2 1 1 1 1 1 2 2 2 2 3 3 3 3 3 2 2 2 1 2 2
1 1 1 1 1 1 1 2 3 3 4 5 5 5 4 5 6 6 5 5 4 3 2 1 2 2 2 2 2 2 2 2 2 2 3 3 3 3 2 2 1 2 2
2 2 2 2 2 2 2 2 2 3 3 2 3 3 4 5 5 4 4 2 1 1 1 2 2 2 2 2 2 2 3 2 2 2 2 2 2 2 2 2 2 2 2
2 2 2 2 2 3 3 3 2 2 3 3 3 2 3 3 3 3 1 1 1 0 2 2 2 2 2 2 2 2 2 1 1 1 2 2 2 2 2 2 2 2 2
2 2 2 2 2 2 2 2 2 2 2 2 2 2 2 2 2 1 1 0 1 2 2 2 3 3 2 2 2 2 1 1 1 1 1 1 1 2 2 2 2 2 2
2 2 2 2 2 2 2 2 2 2 2 2 2 2 1 1 1 1 0 1 1 2 2 2 2 2 2 2 2 2 1 2 2 2 2 2 1 1 2 2 2 2 2
2 2 2 1 1 2 2 2 2 2 2 2 3 2 2 2 2 2 1 1 2 2 2 3 3 2 2 2 1 2 2 2 2 2 2 2 2 1 2 2 2 2 1
1 1 1 1 1 1 1 1 1 2 2 2 2 2 3 2 2 2 2 2 2 2 2 2 2 2 2 2 2 2 2 3 3 2 2 2 2 2 2 1 1 1 1
1 1 1 1 1 1 1 1 1 2 2 2 2 2 2 2 2 3 3 3 3 2 2 2 2 2 2 2 2 2 3 3 3 3 3 3 2 2 2 1 1 1 1
1 1 1 1 1 1 1 2 2 2 2 2 2 2 3 3 3 3 3 3 2 2 2 2 2 3 3 2 2 2 3 3 3 3 4 3 3 2 2 2 2 2 2
1 1 1 1 1 1 2 2 2 2 3 3 3 3 3 3 3 3 3 3 3 3 3 3 2 3 4 4 3 3 3 3 3 2 2 3 3 2 2 2 2 2 2
1 1 1 1 1 1 2 2 2 2 3 3 3 3 3 3 3 3 3 3 3 3 3 2 3 3 4 3 4 4 3 3 3 2 2 2 2 2 2 2 2 2 3
Wind_Direction
189 186 183 189 190 189 202 221 226 234 228 223 229 232 237 244 246 232 249 243 243 268 270 248 260 250 242 237 221 211 208 203 242 276 264 284 292 305 316 299 279 272 278
172 165 185 188 188 192 212 227 218 226 233 228 225 227 234 238 227 224 237 237 232 251 265 252 259 248 254 247 230 227 225 213 219 261 278 282 277 294 303 302 304 294 281
153 150 181 195 199 210 217 223 222 227 239 238 225 226 234 239 237 235 229 232 234 239 237 233 242 224 258 255 242 239 238 230 216 238 271 275 277 294 303 305 309 301 295
165 169 188 211 205 217 221 219 221 224 233 233 228 227 231 237 240 242 236 238 241 245 235 229 233 228 238 244 242 240 241 243 233 241 262 276 275 284 284 298 308 307 298
177 181 202 217 208 217 227 224 224 228 234 226 228 235 237 234 239 239 235 237 238 245 248 247 249 252 255 246 242 234 228 235 239 243 254 264 270 275 282 281 284 297 284
181 193 200 208 214 226 232 229 224 232 236 231 235 241 247 252 256 243 232 230 233 240 257 264 265 265 275 267 252 238 227 226 233 237 248 253 262 259 262 264 272 287 286
182 195 191 196 214 228 234 233 233 237 233 235 243 242 248 258 260 253 239 218 226 242 251 262 274 281 284 274 270 266 255 249 238 226 241 250 254 251 252 260 253 255 263
176 193 202 213 223 231 232 237 241 235 233 239 245 248 251 261 260 251 240 220 229 245 249 249 258 280 279 273 269 273 269 265 256 242 236 247 250 247 235 243 254 264 268
192 206 216 217 226 235 240 243 242 238 245 243 244 246 250 267 267 252 234 223 245 262 262 260 261 269 276 271 258 268 279 281 271 261 255 257 261 259 247 235 242 254 272
227 225 219 213 219 234 242 246 244 236 246 248 253 252 249 262 267 259 235 230 258 275 275 269 266 266 268 255 240 249 263 270 279 286 279 280 272 268 254 232 230 240 259
229 228 228 219 219 226 238 255 243 233 241 252 259 265 259 256 260 248 224 222 238 257 266 270 268 272 266 257 243 243 250 254 258 262 269 276 276 271 265 253 236 230 239
196 217 230 229 232 232 231 265 254 228 234 247 260 278 278 271 260 253 233 237 241 244 260 268 270 267 260 256 250 257 256 248 245 254 264 269 274 278 278 270 255 244 242
197 228 232 237 238 222 214 231 249 246 242 247 245 259 278 282 268 255 245 245 248 246 259 267 271 266 257 253 255 259 249 234 235 248 260 265 264 265 271 275 269 257 254
217 244 248 237 248 262 248 234 230 238 245 250 251 256 268 277 277 276 270 259 252 250 261 275 275 267 259 264 271 263 246 234 232 247 260 268 269 265 264 266 266 281 278
237 254 257 242 224 236 260 253 243 244 239 236 243 240 240 255 259 259 261 265 259 256 256 278 319 317 297 294 282 272 255 239 239 245 252 261 265 269 272 271 260 259 260
232 253 254 252 249 240 251 299 307 271 268 250 240 237 245 245 259 263 265 269 266 246 212 235 254 259 260 268 274 269 255 250 246 245 251 254 259 262 268 273 266 262 265
237 253 255 245 245 250 248 243 282 318 321 293 271 262 256 261 265 266 266 276 269 191 215 240 246 251 261 273 272 265 259 259 250 242 245 251 260 262 258 258 259 266 273
265 258 251 246 248 251 250 247 242 250 282 303 306 290 281 275 278 275 266 65 23 234 236 243 250 253 257 265 269 274 280 285 275 260 259 258 257 258 263 262 256 258 264
273 263 256 254 253 248 245 246 247 247 256 279 300 307 305 286 291 310 103 101 255 269 264 257 254 255 257 260 263 263 266 269 279 268 267 270 268 256 257 259 258 249 249
274 268 270 257 260 257 244 238 243 242 250 264 274 281 294 282 282 310 289 288 278 278 275 270 264 257 255 255 256 258 267 272 275 274 283 286 286 270 261 258 254 251 252
271 267 279 285 272 257 243 237 233 229 239 258 269 268 237 227 246 258 256 256 262 269 265 262 258 255 249 246 247 258 267 274 272 269 271 278 286 281 269 256 253 253 254
263 258 261 267 280 272 250 232 227 235 248 262 279 277 244 237 249 259 266 268 264 261 260 260 263 263 254 239 237 244 255 264 267 267 270 268 264 257 255 252 247 239 232
282 276 286 297 287 271 257 255 243 245 255 261 270 278 272 264 257 259 265 267 265 264 263 253 257 269 271 258 246 237 243 253 258 258 257 260 256 248 241 237 230 224 226
281 267 268 282 282 263 258 263 258 252 252 255 261 270 271 270 271 267 261 263 261 261 262 259 258 269 276 276 267 260 261 268 264 247 240 239 242 241 228 222 223 218 209
298 297 288 279 275 271 270 268 264 258 255 257 260 266 270 270 272 277 276 269 266 265 269 267 270 268 270 271 274 278 282 279 273 266 232 222 228 228 213 208 206 194 187
328 324 319 314 301 286 276 275 276 272 266 265 263 262 265 266 266 269 270 268 263 263 267 267 276 277 280 276 279 280 272 273 272 263 231 212 216 227 213 197 185 180 176